星链-35067(STARLINK-35067)

导读

STARLINK-35067是由美国于2025年9月6日发射的卫星,隶属于SpaceX星链星座网络。星链项目旨在构建全球覆盖的低轨卫星互联网,为偏远地区等提供高速宽带接入服务,该卫星入轨后将补充星链卫星网络,进一步提升星座容量与覆盖能力,推动全球卫星通信网络的建设布局。

Basic Information
目录编号:
65527
目录名称:
STARLINK-35067
国际标识:
2025-200H
轨道中心:
EARTH
卫星名称:
星链-35067
卫星全名:
星链-35067(STARLINK-35067)
卫星状态:
在轨 (已飞行363 天)
发射日期:
2025-09-06 UTC
国别 :
美国 (US)
星等 :
--
Orbit Information
数据来源 国际轨道数据
星历时间: 2026-09-04T00:27:28+0800
18小时前
查看轨道信息
半长轴: 6843.675km
偏心率: 0.0001017
轨道倾角: 97.284°
近地点辐角 117.685°
升交点赤经 313.297°
平近点角 242.450°
近地点: 464.841km
远地点: 466.235km
周期: 93.906分钟
每日圈数: 15.334468
Detailed Information
固有亮度:
5
最大亮度:
2.5
卫星平台:
Starlink V1.0
覆盖范围:
全球
运营商:
太空探索技术公司
运营商所在国:
美国
制造商(研发单位):
太空探索技术公司
制造商所在国:
美国
使用方式:
暂无
Satellite Introduction
Starlink 计划是 SpaceX 推出的全球卫星互联网项目,通过发射低轨道卫星,为全球尤其是偏远地区提供高速、低延迟的互联网服务。自 2019 年起,Starlink 已部署数千颗卫星,旨在缩小全球数字鸿沟,推动互联网普及。该项目还为军事、航空等行业提供通信支持,带来广泛经济效益。
2D Orbit Map
3D Orbit Map
Orbit Altitude Analysis Chart
Orbit Inclination Analysis Chart
Orbit Comprehensive Analysis Chart
View Comprehensive Chart
Conjunction Data List
Event ID Objects TCA Miss Dist (km) Collision Risk Probability Collision Risk Index (CRI) Action
CDM_260905-043505-766606-552721
2026-09-05T
04:35:16+0000
2.113 km
极远距离
2.479291E-6 低风险 0.43
CDM_260828-135406-383306-552721
HERMES 4 (63833)
2026-08-28T
13:54:54+0000
2.247 km
极远距离
2.198256E-6 低风险 0.42
CDM_260906-062604-763006-552721
2026-09-06T
06:26:17+0000
2.473 km
极远距离
1.108794E-6 低风险 0.36
CDM_260905-235004-855606-552721
2026-09-05T
23:50:17+0000
2.943 km
极远距离
1.066041E-6 低风险 0.36